When you browse on this site, cookies collect data to enhance your experience and personalize the content and advertising you see.
Visit our Privacy Policy to learn more. By continuing to use the site, you agree to this use of cookies and data.
  • In Hungary
  • List of Countries
  • For 7 days
  • Water Temperature
  • Weather Map
  • News
  • Weather Widgets
  • user-avatar
    Login

    Hourly Weather Adrano

    Today, 17 August, Saturday

    Time Temperature Precipitation Wind Pressure Humidity
    00:00 +21°C° 0 mm 1 mps 713 mmHg 58%
    01:00 +21°C° 0 mm 1 mps 713 mmHg 57%
    02:00 +20°C° 0 mm 1 mps 713 mmHg 58%
    03:00 +20°C° 0 mm 1 mps 713 mmHg 59%
    04:00 +20°C° 0 mm 1 mps 712 mmHg 60%
    05:00 +21°C° 0 mm 1 mps 713 mmHg 55%
    06:00 +23°C° 0 mm 1 mps 713 mmHg 50%
    07:00 +22°C° 0 mm 0 mps 714 mmHg 46%
    08:00 +26°C° 0 mm 1 mps 714 mmHg 40%
    09:00 +28°C° 0 mm 1 mps 715 mmHg 34%
    10:00 +30°C° 0 mm 1 mps 715 mmHg 29%
    11:00 +31°C° 0 mm 2 mps 715 mmHg 29%
    12:00 +32°C° 0 mm 2 mps 715 mmHg 29%
    13:00 +33°C° 0 mm 3 mps 715 mmHg 29%
    14:00 +31°C° 0 mm 3 mps 715 mmHg 33%
    15:00 +31°C° 0 mm 3 mps 714 mmHg 37%
    16:00 +30°C° 0 mm 3 mps 714 mmHg 41%
    17:00 +28°C° 0 mm 2 mps 714 mmHg 49%
    18:00 +26°C° 0 mm 2 mps 713 mmHg 57%
    19:00 +24°C° 0 mm 1 mps 713 mmHg 66%
    20:00 +23°C° 0 mm 1 mps 713 mmHg 69%
    21:00 +22°C° 0 mm 1 mps 713 mmHg 72%
    22:00 +20°C° 0 mm 0 mps 713 mmHg 75%
    23:00 +21°C° 0 mm 1 mps 713 mmHg 75%

    Tomorrow, 18 August, Sunday

    Time Temperature Precipitation Wind Pressure Humidity
    00:00 +21°C° 0 mm 1 mps 713 mmHg 75%
    01:00 +21°C° 0 mm 1 mps 713 mmHg 76%
    02:00 +21°C° 0 mm 1 mps 713 mmHg 73%
    03:00 +20°C° 0 mm 1 mps 713 mmHg 71%
    04:00 +20°C° 0 mm 1 mps 712 mmHg 69%
    05:00 +22°C° 0 mm 1 mps 713 mmHg 62%
    06:00 +21°C° 0 mm 0 mps 713 mmHg 54%
    07:00 +23°C° 0 mm 0 mps 713 mmHg 47%
    08:00 +27°C° 0 mm 1 mps 714 mmHg 42%
    09:00 +29°C° 0 mm 1 mps 715 mmHg 38%
    10:00 +31°C° 0 mm 2 mps 715 mmHg 33%
    11:00 +31°C° 0 mm 2 mps 715 mmHg 32%
    12:00 +33°C° 0 mm 3 mps 715 mmHg 31%
    13:00 +34°C° 0 mm 4 mps 715 mmHg 30%
    14:00 +33°C° 0 mm 4 mps 714 mmHg 34%
    15:00 +32°C° 0 mm 4 mps 714 mmHg 37%
    16:00 +32°C° 0 mm 4 mps 714 mmHg 40%
    17:00 +29°C° 0 mm 3 mps 714 mmHg 48%
    18:00 +27°C° 0 mm 2 mps 713 mmHg 55%
    19:00 +25°C° 0 mm 1 mps 713 mmHg 62%
    20:00 +24°C° 0 mm 1 mps 713 mmHg 65%
    21:00 +23°C° 0 mm 1 mps 713 mmHg 68%
    22:00 +23°C° 0 mm 1 mps 713 mmHg 70%
    23:00 +22°C° 0 mm 1 mps 713 mmHg 70%

    Day after tomorrow, 19 August, Monday

    Time Temperature Precipitation Wind Pressure Humidity
    00:00 +22°C° 0 mm 1 mps 713 mmHg 70%
    01:00 +22°C° 0 mm 1 mps 713 mmHg 69%
    02:00 +22°C° 0 mm 1 mps 713 mmHg 69%
    03:00 +22°C° 0 mm 1 mps 713 mmHg 68%
    04:00 +22°C° 0 mm 1 mps 713 mmHg 68%
    05:00 +23°C° 0 mm 1 mps 713 mmHg 63%
    06:00 +22°C° 0 mm 0 mps 714 mmHg 58%
    07:00 +23°C° 0 mm 0 mps 714 mmHg 53%
    08:00 +27°C° 0 mm 1 mps 714 mmHg 49%
    09:00 +29°C° 0 mm 1 mps 715 mmHg 44%
    10:00 +31°C° 0 mm 2 mps 715 mmHg 39%
    11:00 +31°C° 0 mm 2 mps 715 mmHg 38%
    12:00 +33°C° 0 mm 3 mps 715 mmHg 37%
    13:00 +33°C° 0 mm 3 mps 715 mmHg 36%
    14:00 +33°C° 0 mm 3 mps 715 mmHg 37%
    15:00 +31°C° 0 mm 3 mps 715 mmHg 39%
    16:00 +31°C° 0 mm 3 mps 714 mmHg 40%
    17:00 +29°C° 0 mm 3 mps 714 mmHg 46%
    18:00 +27°C° 0 mm 2 mps 714 mmHg 53%
    19:00 +25°C° 0 mm 1 mps 714 mmHg 59%
    20:00 +25°C° 0 mm 1 mps 714 mmHg 62%
    21:00 +24°C° 0 mm 1 mps 714 mmHg 64%
    22:00 +23°C° 0 mm 1 mps 715 mmHg 67%
    23:00 +23°C° 0 mm 1 mps 714 mmHg 67%

    20 August, Tuesday

    Time Temperature Precipitation Wind Pressure Humidity
    00:00 +23°C° 0 mm 1 mps 714 mmHg 68%
    01:00 +22°C° 0 mm 1 mps 714 mmHg 69%
    02:00 +22°C° 0 mm 1 mps 714 mmHg 66%
    03:00 +22°C° 0 mm 1 mps 714 mmHg 64%
    04:00 +22°C° 0 mm 1 mps 714 mmHg 61%
    05:00 +23°C° 0 mm 1 mps 714 mmHg 55%
    06:00 +25°C° 0 mm 1 mps 714 mmHg 49%
    07:00 +24°C° 0 mm 0 mps 715 mmHg 43%
    08:00 +28°C° 0 mm 1 mps 715 mmHg 40%
    09:00 +30°C° 0 mm 2 mps 715 mmHg 36%
    10:00 +31°C° 0 mm 2 mps 716 mmHg 32%
    11:00 +33°C° 0 mm 3 mps 716 mmHg 32%
    12:00 +34°C° 0 mm 3 mps 716 mmHg 31%
    13:00 +34°C° 0 mm 4 mps 716 mmHg 31%
    14:00 +34°C° 0 mm 4 mps 715 mmHg 33%
    15:00 +33°C° 0 mm 3 mps 715 mmHg 35%
    16:00 +31°C° 0 mm 3 mps 715 mmHg 37%
    17:00 +29°C° 0 mm 2 mps 715 mmHg 43%
    18:00 +27°C° 0 mm 2 mps 715 mmHg 50%
    19:00 +25°C° 0 mm 1 mps 714 mmHg 56%
    20:00 +25°C° 0 mm 1 mps 714 mmHg 58%
    21:00 +24°C° 0 mm 1 mps 715 mmHg 59%
    22:00 +23°C° 0 mm 1 mps 715 mmHg 61%
    23:00 +23°C° 0 mm 1 mps 714 mmHg 62%

    21 August, Wednesday

    Time Temperature Precipitation Wind Pressure Humidity
    00:00 +23°C° 0 mm 1 mps 714 mmHg 62%
    01:00 +23°C° 0 mm 1 mps 714 mmHg 63%
    02:00 +23°C° 0 mm 1 mps 714 mmHg 63%
    03:00 +22°C° 0 mm 1 mps 714 mmHg 63%
    04:00 +22°C° 0 mm 1 mps 714 mmHg 63%
    05:00 +24°C° 0 mm 1 mps 714 mmHg 58%
    06:00 +25°C° 0 mm 1 mps 714 mmHg 52%
    07:00 +26°C° 0 mm 1 mps 715 mmHg 47%
    08:00 +28°C° 0 mm 1 mps 715 mmHg 43%
    09:00 +30°C° 0 mm 1 mps 715 mmHg 39%
    10:00 +32°C° 0 mm 1 mps 716 mmHg 35%
    11:00 +34°C° 0 mm 2 mps 715 mmHg 34%
    12:00 +34°C° 0 mm 2 mps 715 mmHg 32%
    13:00 +35°C° 0 mm 3 mps 715 mmHg 31%
    14:00 +34°C° 0 mm 3 mps 715 mmHg 34%
    15:00 +33°C° 0 mm 3 mps 715 mmHg 36%
    16:00 +31°C° 0 mm 3 mps 714 mmHg 39%
    17:00 +29°C° 0 mm 2 mps 714 mmHg 45%
    18:00 +28°C° 0 mm 2 mps 714 mmHg 52%
    19:00 +26°C° 0 mm 1 mps 714 mmHg 58%
    20:00 +25°C° 0 mm 1 mps 714 mmHg 60%
    21:00 +25°C° 0 mm 1 mps 714 mmHg 62%
    22:00 +24°C° 0 mm 1 mps 714 mmHg 64%
    23:00 +24°C° 0 mm 1 mps 714 mmHg 63%

    22 August, Thursday

    Time Temperature Precipitation Wind Pressure Humidity
    00:00 +24°C° 0 mm 1 mps 714 mmHg 61%
    01:00 +23°C° 0 mm 1 mps 714 mmHg 59%
    02:00 +23°C° 0 mm 1 mps 713 mmHg 57%
    03:00 +23°C° 0 mm 1 mps 713 mmHg 55%
    04:00 +23°C° 0 mm 1 mps 713 mmHg 53%
    05:00 +24°C° 0 mm 1 mps 713 mmHg 49%
    06:00 +26°C° 0 mm 1 mps 714 mmHg 45%
    07:00 +25°C° 0 mm 0 mps 714 mmHg 41%
    08:00 +29°C° 0 mm 1 mps 714 mmHg 38%
    09:00 +30°C° 0 mm 2 mps 715 mmHg 35%
    10:00 +33°C° 0 mm 3 mps 715 mmHg 32%
    11:00 +33°C° 0 mm 3 mps 715 mmHg 32%
    12:00 +34°C° 0 mm 3 mps 715 mmHg 32%
    13:00 +34°C° 0 mm 4 mps 715 mmHg 32%
    14:00 +33°C° 0 mm 3 mps 715 mmHg 34%
    15:00 +33°C° 0 mm 3 mps 714 mmHg 36%
    16:00 +31°C° 0 mm 3 mps 714 mmHg 39%
    17:00 +29°C° 0 mm 2 mps 714 mmHg 45%
    18:00 +27°C° 0 mm 1 mps 714 mmHg 51%
    19:00 +25°C° 0 mm 1 mps 713 mmHg 58%
    20:00 +25°C° 0 mm 1 mps 713 mmHg 59%
    21:00 +24°C° 0 mm 1 mps 714 mmHg 59%
    22:00 +24°C° 0 mm 1 mps 714 mmHg 60%
    23:00 +24°C° 0 mm 1 mps 714 mmHg 59%
    Show more